GW4041 Weather Reports


time (UTC)temp
C
wind
direction
speed
KPH
gust
KPH
rain 1hr
cm
rain 24hr
cm
rain mn
cm
humidity
%
barometer
mb
20260503192252 14 28 0.0 4.8 0.00 0.00 0.00 36 1011.4
20260503191749 14 2 4.8 12.9 0.00 0.00 0.00 35 1011.7
20260503191246 14 10 8.0 11.3 0.00 0.00 0.00 35 1011.4
20260503190742 14 329 8.0 12.9 0.00 0.00 0.00 35 1011.4
20260503190239 14 351 4.8 11.3 0.00 0.00 0.00 36 1011.2
20260503185731 15 351 8.0 12.9 0.00 0.00 0.00 35 1011.5
20260503185226 15 222 4.8 8.0 0.00 0.00 0.00 35 1011.6
20260503184721 14 328 3.2 9.7 0.00 0.00 0.00 38 1011.6
20260503184218 13 261 4.8 17.7 0.00 0.00 0.00 39 1011.5
20260503183714 13 234 3.2 8.0 0.00 0.00 0.00 39 1011.8
20260503183212 13 330 8.0 9.7 0.00 0.00 0.00 37 1011.9
20260503182710 13 225 9.7 14.5 0.00 0.00 0.00 37 1011.9
20260503182208 14 320 9.7 12.9 0.00 0.00 0.00 36 1011.8
20260503181704 13 24 3.2 4.8 0.00 0.00 0.00 38 1012.0
20260503181201 13 22 4.8 9.7 0.00 0.00 0.00 39 1012.2
20260503180658 13 337 11.3 14.5 0.00 0.00 0.00 38 1011.8
20260503180156 12 308 6.4 9.7 0.00 0.00 0.00 41 1012.2
20260503175653 12 235 1.6 11.3 0.00 0.00 0.00 42 1012.1
20260503175150 13 13 6.4 9.7 0.00 0.00 0.00 40 1012.0
20260503174646 12 260 3.2 4.8 0.00 0.00 0.00 44 1012.1
20260503174144 12 2 6.4 8.0 0.00 0.00 0.00 43 1012.1
20260503173639 12 303 3.2 8.0 0.00 0.00 0.00 40 1012.2
20260503173136 12 302 3.2 11.3 0.00 0.00 0.00 44 1012.4
20260503172632 11 347 4.8 9.7 0.00 0.00 0.00 44 1012.5
20260503172130 12 313 8.0 11.3 0.00 0.00 0.00 41 1012.5
20260503171626 12 237 3.2 9.7 0.00 0.00 0.00 44 1012.5
20260503171123 11 331 0.0 3.2 0.00 0.00 0.00 46 1012.5
20260503170620 11 9 3.2 8.0 0.00 0.00 0.00 46 1012.5
20260503170116 11 348 3.2 8.0 0.00 0.00 0.00 45 1012.4
20260503151012 10 69 3.2 9.7 0.00 0.00 0.00 51 1013.1
20260503150508 10 220 3.2 11.3 0.00 0.00 0.00 49 1013.1
20260503131350 10 358 4.8 4.8 0.00 0.00 0.00 54 1012.7
20260503130847 8 12 4.8 8.0 0.00 0.00 0.00 56 1012.9
20260503130345 8 357 8.0 11.3 0.00 0.00 0.00 56 1012.9
20260503110739 6 310 1.6 3.2 0.00 0.00 0.00 66 1012.6
20260503110236 6 340 1.6 4.8 0.00 0.00 0.00 66 1012.5
20260503100202 6 324 3.2 4.8 0.00 0.00 0.00 63 1011.6
20260503090121 6 331 1.6 1.6 0.00 0.00 0.00 66 1010.9
20260503081556 5 334 0.0 0.0 0.00 0.00 0.00 74 1010.8
20260503081053 5 331 0.0 1.6 0.00 0.00 0.00 70 1010.8
20260503080549 5 327 0.0 0.0 0.00 0.00 0.00 68 1010.7
20260503072523 6 304 0.0 0.0 0.00 0.00 0.00 66 1010.7
20260503072020 6 335 0.0 0.0 0.00 0.00 0.00 65 1010.7
20260503071512 7 335 0.0 1.6 0.00 0.00 0.00 64 1010.6
20260503071009 7 335 0.0 1.6 0.00 0.00 0.00 64 1010.6
20260503070505 7 344 0.0 1.6 0.00 0.00 0.00 62 1010.6
20260503054922 7 340 0.0 0.0 0.00 0.00 0.00 59 1011.0
20260503054419 8 324 1.6 1.6 0.00 0.00 0.00 60 1011.2
20260503053917 8 306 1.6 1.6 0.00 0.00 0.00 61 1011.2
20260503053414 8 318 1.6 1.6 0.00 0.00 0.00 60 1011.1
20260503052910 8 335 1.6 3.2 0.00 0.00 0.00 59 1011.0
20260503052408 7 338 0.0 3.2 0.00 0.00 0.00 62 1011.2
20260503051904 7 330 0.0 1.6 0.00 0.00 0.00 64 1011.1
20260503051400 7 324 0.0 1.6 0.00 0.00 0.00 62 1011.0
20260503050857 7 346 0.0 1.6 0.00 0.00 0.00 63 1011.2
20260503050353 7 340 0.0 1.6 0.00 0.00 0.00 64 1011.2
20260503045851 7 323 0.0 1.6 0.00 0.00 0.00 69 1011.2
20260503045348 7 313 0.0 0.0 0.00 0.00 0.00 71 1011.1
20260503044845 7 316 0.0 1.6 0.00 0.00 0.00 72 1011.4
20260503044342 7 325 0.0 0.0 0.00 0.00 0.00 72 1011.6
20260503043839 7 324 0.0 0.0 0.00 0.00 0.00 72 1011.5
20260503043336 7 324 0.0 0.0 0.00 0.00 0.00 68 1011.4
20260503042832 7 347 1.6 1.6 0.00 0.00 0.00 65 1011.3
20260503042329 7 349 1.6 1.6 0.00 0.00 0.00 68 1011.6
20260503041825 7 344 1.6 1.6 0.00 0.00 0.00 69 1011.5
20260503041322 7 306 1.6 1.6 0.00 0.00 0.00 70 1011.6
20260503040820 7 320 0.0 1.6 0.00 0.00 0.00 70 1011.7
20260503040317 7 316 0.0 1.6 0.00 0.00 0.00 68 1011.6
20260503035814 7 319 1.6 1.6 0.00 0.00 0.00 68 1011.4
20260503035312 7 321 1.6 1.6 0.00 0.00 0.00 70 1011.4
20260503034808 7 332 0.0 1.6 0.00 0.00 0.00 65 1011.6
20260503034305 7 327 1.6 1.6 0.00 0.00 0.00 63 1011.7
20260503033803 7 329 0.0 1.6 0.00 0.00 0.00 68 1011.6
20260503033300 8 333 1.6 3.2 0.00 0.00 0.00 71 1011.5
20260503032758 7 314 1.6 1.6 0.00 0.00 0.00 71 1011.5
20260503032257 7 329 1.6 1.6 0.00 0.00 0.00 65 1011.5
20260503031753 8 333 0.0 0.0 0.00 0.00 0.00 67 1011.5
20260503031252 7 345 1.6 3.2 0.00 0.00 0.00 66 1011.4
20260503030747 7 344 1.6 1.6 0.00 0.00 0.00 70 1011.5
20260503030244 7 346 0.0 0.0 0.00 0.00 0.00 71 1011.8
20260503025741 7 322 0.0 0.0 0.00 0.00 0.00 72 1011.6
20260503025238 7 317 0.0 0.0 0.00 0.00 0.00 69 1011.6
20260503024735 7 336 0.0 0.0 0.00 0.00 0.00 67 1011.7
20260503024232 7 332 0.0 0.0 0.00 0.00 0.00 69 1011.6
20260503023729 8 332 0.0 0.0 0.00 0.00 0.00 70 1011.5
20260503023226 8 333 0.0 0.0 0.00 0.00 0.00 69 1011.6
20260503022722 8 325 0.0 0.0 0.00 0.00 0.00 69 1011.8
20260503022217 8 321 0.0 0.0 0.00 0.00 0.00 70 1011.8
20260503021714 8 329 0.0 0.0 0.00 0.00 0.00 70 1011.7
20260503021210 8 320 0.0 0.0 0.00 0.00 0.00 66 1011.8
20260503020708 8 341 0.0 0.0 0.00 0.00 0.00 70 1011.6
20260503020205 8 324 0.0 0.0 0.00 0.00 0.00 70 1011.5
20260503015702 8 332 0.0 0.0 0.00 0.00 0.00 69 1011.8
20260503015159 8 344 0.0 0.0 0.00 0.00 0.00 71 1011.5
20260503014654 8 318 0.0 0.0 0.00 0.00 0.00 68 1011.6
20260503014153 8 350 0.0 0.0 0.00 0.00 0.00 69 1011.8
20260503013649 8 335 0.0 0.0 0.00 0.00 0.00 71 1011.4
20260503013147 9 333 0.0 0.0 0.00 0.00 0.00 70 1011.3
20260503012644 9 343 0.0 0.0 0.00 0.00 0.00 69 1011.4
20260503012141 9 335 0.0 0.0 0.00 0.00 0.00 70 1011.4
20260503011638 9 330 0.0 0.0 0.00 0.00 0.00 69 1011.3
20260503011135 9 340 0.0 0.0 0.00 0.00 0.00 69 1011.5
20260503010631 10 335 0.0 0.0 0.00 0.00 0.00 67 1011.3
20260503010128 10 335 0.0 0.0 0.00 0.00 0.00 65 1011.2
20260503005625 10 345 0.0 0.0 0.00 0.00 0.00 64 1011.1
20260503005123 10 320 0.0 0.0 0.00 0.00 0.00 63 1011.0
20260503004619 10 320 0.0 0.0 0.00 0.00 0.00 65 1011.1
20260503004118 10 320 0.0 0.0 0.00 0.00 0.00 64 1010.8
20260503003614 10 320 0.0 0.0 0.00 0.00 0.00 62 1010.8
20260503003111 10 320 0.0 0.0 0.00 0.00 0.00 60 1010.9
20260503002608 10 315 0.0 0.0 0.00 0.00 0.00 61 1010.8
20260503002104 11 306 0.0 0.0 0.00 0.00 0.00 59 1010.5
20260503001600 11 313 0.0 0.0 0.00 0.00 0.00 62 1010.7
20260503001058 11 314 0.0 0.0 0.00 0.00 0.00 61 1010.6
20260503000555 11 305 0.0 0.0 0.00 0.00 0.00 61 1010.7
20260503000052 11 305 0.0 0.0 0.00 0.00 0.00 57 1010.6
20260502235549 11 304 0.0 1.6 0.00 0.00 0.00 55 1010.6
20260502235047 11 318 0.0 1.6 0.00 0.00 0.00 55 1010.7
20260502234542 12 322 0.0 0.0 0.00 0.00 0.00 52 1010.4
20260502234041 12 323 0.0 1.6 0.00 0.00 0.00 49 1010.6
20260502233540 12 329 0.0 0.0 0.00 0.00 0.00 53 1010.4
20260502233038 12 309 0.0 1.6 0.00 0.00 0.00 47 1010.7
20260502232534 12 316 0.0 1.6 0.00 0.00 0.00 52 1010.5
20260502232031 12 308 0.0 0.0 0.00 0.00 0.00 51 1010.5
20260502231528 12 311 0.0 1.6 0.00 0.00 0.00 46 1010.5
20260502231026 12 340 0.0 1.6 0.00 0.00 0.00 49 1010.5
20260502230524 13 314 1.6 1.6 0.00 0.00 0.00 47 1010.3
20260502230023 13 336 1.6 1.6 0.00 0.00 0.00 44 1010.3
20260502225523 13 352 1.6 3.2 0.00 0.00 0.00 44 1010.5
20260502225020 13 348 3.2 3.2 0.00 0.00 0.00 45 1010.5
20260502224516 13 325 1.6 1.6 0.00 0.00 0.00 43 1010.3
20260502224014 13 354 1.6 4.8 0.00 0.00 0.00 43 1010.2
20260502223511 13 342 1.6 3.2 0.00 0.00 0.00 43 1010.1
20260502223009 13 16 1.6 1.6 0.00 0.00 0.00 46 1010.0
20260502222506 13 336 1.6 4.8 0.00 0.00 0.00 44 1010.1
20260502222002 13 345 1.6 3.2 0.00 0.00 0.00 44 1010.1
20260502221458 13 321 0.0 3.2 0.00 0.00 0.00 45 1010.2
20260502220955 13 333 0.0 1.6 0.00 0.00 0.00 45 1010.0
20260502220451 13 350 1.6 3.2 0.00 0.00 0.00 43 1010.2
20260502215948 13 282 1.6 1.6 0.00 0.00 0.00 43 1010.1
20260502215445 14 12 3.2 4.8 0.00 0.00 0.00 42 1010.1
20260502214942 13 340 0.0 1.6 0.00 0.00 0.00 43 1010.4
20260502214439 14 214 1.6 3.2 0.00 0.00 0.00 41 1010.2
20260502213936 14 253 3.2 8.0 0.00 0.00 0.00 40 1010.0
20260502213433 14 348 0.0 4.8 0.00 0.00 0.00 42 1010.2
20260502212931 14 343 0.0 3.2 0.00 0.00 0.00 42 1010.1
20260502212430 14 345 3.2 4.8 0.00 0.00 0.00 42 1010.1
20260502211927 14 321 4.8 4.8 0.00 0.00 0.00 41 1010.0
20260502211422 14 302 0.0 1.6 0.00 0.00 0.00 42 1009.9
20260502210920 14 337 1.6 1.6 0.00 0.00 0.00 45 1010.1
20260502210417 14 298 1.6 3.2 0.00 0.00 0.00 42 1009.9
20260502205914 14 271 4.8 4.8 0.00 0.00 0.00 44 1010.1
20260502205410 14 290 3.2 8.0 0.00 0.00 0.00 41 1010.0
20260502204908 15 340 1.6 1.6 0.00 0.00 0.00 45 1009.8
20260502204404 14 320 1.6 3.2 0.00 0.00 0.00 44 1009.8
20260502203902 15 315 4.8 8.0 0.00 0.00 0.00 44 1010.0
20260502203359 15 7 3.2 3.2 0.00 0.00 0.00 44 1009.9
20260502202855 14 346 1.6 3.2 0.00 0.00 0.00 44 1010.0
20260502202352 13 7 1.6 4.8 0.00 0.00 0.00 45 1010.2
20260502201850 14 301 1.6 3.2 0.00 0.00 0.00 45 1010.2
20260502201346 14 2 3.2 4.8 0.00 0.00 0.00 45 1010.1
20260502200842 14 1 4.8 4.8 0.00 0.00 0.00 45 1010.2
20260502200338 13 12 4.8 8.0 0.00 0.00 0.00 44 1010.2
20260502195837 14 313 3.2 3.2 0.00 0.00 0.00 45 1010.3
20260502195333 14 303 3.2 4.8 0.00 0.00 0.00 45 1010.3
20260502194830 14 358 1.6 4.8 0.00 0.00 0.00 44 1010.3
20260502194327 15 313 4.8 8.0 0.00 0.00 0.00 43 1010.3
20260502193822 15 332 1.6 4.8 0.00 0.00 0.00 43 1010.4
20260502193320 15 343 3.2 4.8 0.00 0.00 0.00 43 1010.5
20260502192815 15 325 3.2 9.7 0.00 0.00 0.00 41 1010.8